When you browse on this site, cookies collect data to enhance your experience and personalize the content and advertising you see.
Visit our Privacy Policy to learn more. By continuing to use the site, you agree to this use of cookies and data.
  • In Romania
  • List of Countries
  • For 7 days
  • Water Temperature
  • Satellite Maps
  • Weather Map
  • Weather Widgets
  • user-avatar
    Login

    Hourly Weather Salta

    Today, 18 June, Tuesday

    Time Temperature Precipitation Wind Pressure Humidity
    00:00 +9°C° 0 mm 1 mps 649 mmHg 49%
    01:00 +9°C° 0 mm 1 mps 650 mmHg 48%
    02:00 +9°C° 0 mm 1 mps 650 mmHg 47%
    03:00 +8°C° 0 mm 2 mps 650 mmHg 46%
    04:00 +8°C° 0 mm 2 mps 650 mmHg 45%
    05:00 +8°C° 0 mm 2 mps 650 mmHg 45%
    06:00 +9°C° 0 mm 2 mps 651 mmHg 45%
    07:00 +10°C° 0 mm 1 mps 651 mmHg 46%
    08:00 +10°C° 0 mm 1 mps 652 mmHg 46%
    09:00 +13°C° 0 mm 1 mps 652 mmHg 42%
    10:00 +15°C° 0 mm 2 mps 653 mmHg 37%
    11:00 +18°C° 0 mm 2 mps 654 mmHg 32%
    12:00 +18°C° 0 mm 2 mps 653 mmHg 32%
    13:00 +19°C° 0 mm 2 mps 653 mmHg 31%
    14:00 +20°C° 0 mm 2 mps 652 mmHg 31%
    15:00 +18°C° 0 mm 2 mps 652 mmHg 36%
    16:00 +17°C° 0 mm 2 mps 652 mmHg 42%
    17:00 +15°C° 0 mm 2 mps 651 mmHg 47%
    18:00 +13°C° 0 mm 1 mps 651 mmHg 52%
    19:00 +11°C° 0 mm 1 mps 652 mmHg 57%
    20:00 +9°C° 0 mm 1 mps 652 mmHg 63%
    21:00 +8°C° 0 mm 1 mps 652 mmHg 63%
    22:00 +7°C° 0 mm 1 mps 652 mmHg 63%
    23:00 +7°C° 0 mm 1 mps 652 mmHg 63%

    Tomorrow, 19 June, Wednesday

    Time Temperature Precipitation Wind Pressure Humidity
    00:00 +7°C° 0 mm 1 mps 652 mmHg 65%
    01:00 +6°C° 0 mm 1 mps 652 mmHg 66%
    02:00 +6°C° 0 mm 1 mps 652 mmHg 67%
    03:00 +6°C° 0 mm 1 mps 652 mmHg 65%
    04:00 +6°C° 0 mm 1 mps 652 mmHg 64%
    05:00 +6°C° 0 mm 1 mps 652 mmHg 62%
    06:00 +7°C° 0 mm 1 mps 653 mmHg 58%
    07:00 +8°C° 0 mm 1 mps 654 mmHg 54%
    08:00 +9°C° 0 mm 1 mps 654 mmHg 49%
    09:00 +13°C° 0 mm 1 mps 655 mmHg 42%
    10:00 +16°C° 0 mm 1 mps 656 mmHg 35%
    11:00 +20°C° 0 mm 1 mps 657 mmHg 28%
    12:00 +21°C° 0 mm 1 mps 657 mmHg 26%
    13:00 +22°C° 0 mm 1 mps 656 mmHg 24%
    14:00 +23°C° 0 mm 2 mps 656 mmHg 22%
    15:00 +21°C° 0 mm 1 mps 656 mmHg 26%
    16:00 +20°C° 0 mm 1 mps 655 mmHg 31%
    17:00 +19°C° 0 mm 1 mps 655 mmHg 35%
    18:00 +15°C° 0 mm 1 mps 654 mmHg 39%
    19:00 +13°C° 0 mm 1 mps 654 mmHg 42%
    20:00 +10°C° 0 mm 0 mps 654 mmHg 46%
    21:00 +9°C° 0 mm 0 mps 654 mmHg 47%
    22:00 +9°C° 0 mm 0 mps 654 mmHg 48%
    23:00 +8°C° 0 mm 0 mps 654 mmHg 49%

    Day after tomorrow, 20 June, Thursday

    Time Temperature Precipitation Wind Pressure Humidity
    00:00 +8°C° 0 mm 0 mps 654 mmHg 50%
    01:00 +7°C° 0 mm 0 mps 653 mmHg 51%
    02:00 +7°C° 0 mm 0 mps 653 mmHg 52%
    03:00 +7°C° 0 mm 0 mps 653 mmHg 52%
    04:00 +7°C° 0 mm 0 mps 652 mmHg 52%
    05:00 +7°C° 0 mm 0 mps 652 mmHg 52%
    06:00 +7°C° 0 mm 0 mps 653 mmHg 50%
    07:00 +8°C° 0 mm 0 mps 654 mmHg 48%
    08:00 +9°C° 0 mm 0 mps 654 mmHg 46%
    09:00 +13°C° 0 mm 1 mps 655 mmHg 41%
    10:00 +16°C° 0 mm 1 mps 656 mmHg 36%
    11:00 +19°C° 0 mm 1 mps 656 mmHg 30%
    12:00 +20°C° 0 mm 1 mps 656 mmHg 30%
    13:00 +20°C° 0 mm 2 mps 655 mmHg 31%
    14:00 +21°C° 0 mm 2 mps 655 mmHg 31%
    15:00 +20°C° 0 mm 2 mps 654 mmHg 35%
    16:00 +20°C° 0 mm 1 mps 653 mmHg 40%
    17:00 +18°C° 0 mm 1 mps 653 mmHg 44%
    18:00 +15°C° 0 mm 1 mps 652 mmHg 48%
    19:00 +13°C° 0 mm 1 mps 652 mmHg 52%
    20:00 +11°C° 0 mm 1 mps 652 mmHg 56%
    21:00 +11°C° 0 mm 1 mps 652 mmHg 58%
    22:00 +11°C° 0 mm 1 mps 652 mmHg 60%
    23:00 +10°C° 0 mm 1 mps 651 mmHg 62%

    21 June, Friday

    Time Temperature Precipitation Wind Pressure Humidity
    00:00 +10°C° 0 mm 1 mps 651 mmHg 62%
    01:00 +10°C° 0 mm 1 mps 651 mmHg 62%
    02:00 +10°C° 0 mm 1 mps 650 mmHg 63%
    03:00 +10°C° 0 mm 1 mps 650 mmHg 62%
    04:00 +10°C° 0 mm 1 mps 650 mmHg 61%
    05:00 +10°C° 0 mm 1 mps 650 mmHg 61%
    06:00 +10°C° 0 mm 1 mps 650 mmHg 58%
    07:00 +11°C° 0 mm 1 mps 651 mmHg 56%
    08:00 +12°C° 0 mm 1 mps 651 mmHg 54%
    09:00 +15°C° 0 mm 1 mps 652 mmHg 47%
    10:00 +20°C° 0 mm 1 mps 653 mmHg 41%
    11:00 +23°C° 0 mm 1 mps 654 mmHg 35%
    12:00 +24°C° 0 mm 1 mps 654 mmHg 34%
    13:00 +25°C° 0 mm 1 mps 653 mmHg 33%
    14:00 +26°C° 0 mm 2 mps 653 mmHg 32%
    15:00 +24°C° 0 mm 2 mps 653 mmHg 39%
    16:00 +23°C° 0 mm 1 mps 652 mmHg 46%
    17:00 +21°C° 0 mm 1 mps 652 mmHg 52%
    18:00 +19°C° 0 mm 1 mps 652 mmHg 59%
    19:00 +16°C° 0 mm 1 mps 652 mmHg 67%
    20:00 +13°C° 0 mm 0 mps 651 mmHg 74%
    21:00 +14°C° 0 mm 1 mps 652 mmHg 73%
    22:00 +14°C° 0 mm 1 mps 652 mmHg 73%
    23:00 +14°C° 0 mm 1 mps 652 mmHg 72%

    22 June, Saturday

    Time Temperature Precipitation Wind Pressure Humidity
    00:00 +14°C° 0 mm 1 mps 652 mmHg 71%
    01:00 +13°C° 0 mm 1 mps 652 mmHg 70%
    02:00 +13°C° 0 mm 1 mps 652 mmHg 69%
    03:00 +13°C° 0 mm 1 mps 652 mmHg 68%
    04:00 +13°C° 0 mm 1 mps 651 mmHg 67%
    05:00 +13°C° 0 mm 1 mps 651 mmHg 66%
    06:00 +13°C° 0 mm 1 mps 652 mmHg 63%
    07:00 +14°C° 0 mm 1 mps 652 mmHg 60%
    08:00 +15°C° 0 mm 1 mps 653 mmHg 57%
    09:00 +19°C° 0 mm 1 mps 654 mmHg 52%
    10:00 +22°C° 0 mm 1 mps 655 mmHg 47%
    11:00 +23°C° 0 mm 0 mps 656 mmHg 41%
    12:00 +26°C° 0 mm 1 mps 655 mmHg 40%
    13:00 +27°C° 0 mm 1 mps 655 mmHg 39%
    14:00 +28°C° 0 mm 2 mps 654 mmHg 37%
    15:00 +26°C° 0 mm 2 mps 654 mmHg 43%
    16:00 +25°C° 0 mm 2 mps 654 mmHg 50%
    17:00 +24°C° 0 mm 2 mps 653 mmHg 56%
    18:00 +22°C° 0 mm 1 mps 653 mmHg 64%
    19:00 +19°C° 0 mm 1 mps 652 mmHg 72%
    20:00 +15°C° 0 mm 0 mps 652 mmHg 81%
    21:00 +15°C° 0 mm 0 mps 652 mmHg 81%
    22:00 +14°C° 0 mm 0 mps 652 mmHg 81%
    23:00 +14°C° 0 mm 0 mps 652 mmHg 81%

    23 June, Sunday

    Time Temperature Precipitation Wind Pressure Humidity
    00:00 +15°C° 0 mm 1 mps 652 mmHg 79%
    01:00 +15°C° 0 mm 1 mps 651 mmHg 78%
    02:00 +15°C° 0 mm 1 mps 651 mmHg 77%
    03:00 +15°C° 0 mm 1 mps 651 mmHg 76%
    04:00 +14°C° 0 mm 1 mps 651 mmHg 76%
    05:00 +14°C° 0 mm 1 mps 650 mmHg 75%
    06:00 +15°C° 0 mm 1 mps 651 mmHg 72%
    07:00 +15°C° 0 mm 1 mps 651 mmHg 68%
    08:00 +16°C° 0 mm 1 mps 651 mmHg 65%
    09:00 +20°C° 0 mm 1 mps 652 mmHg 58%
    10:00 +23°C° 0 mm 1 mps 653 mmHg 52%
    11:00 +26°C° 0 mm 1 mps 653 mmHg 45%
    12:00 +26°C° 0 mm 1 mps 652 mmHg 44%
    13:00 +27°C° 0 mm 2 mps 651 mmHg 42%
    14:00 +28°C° 0 mm 2 mps 651 mmHg 40%
    15:00 +26°C° 0 mm 2 mps 650 mmHg 46%
    16:00 +25°C° 0 mm 2 mps 649 mmHg 51%
    17:00 +24°C° 0 mm 2 mps 649 mmHg 57%
    18:00 +22°C° 0 mm 1 mps 648 mmHg 63%
    19:00 +20°C° 0 mm 1 mps 648 mmHg 70%
    20:00 +18°C° 0 mm 1 mps 648 mmHg 77%
    21:00 +18°C° 0 mm 1 mps 648 mmHg 75%
    22:00 +18°C° 0 mm 1 mps 647 mmHg 74%
    23:00 +16°C° 0 mm 1 mps 647 mmHg 73%
    Show more